EW9119 Weather Reports


time (UTC)temp
F
wind
direction
speed
knots
gust
knots
rain 1hr
in
rain 24hr
in
rain mn
in
humidity
%
barometer
mb
20260904063014 76 101 0.0 0.0 0.00 0.00 0.00 36 1013.2
20260904061513 76 101 0.0 0.0 0.00 0.00 0.00 39 1013.6
20260904060006 76 101 0.0 0.0 0.00 0.00 0.00 44 1013.8
20260904054600 76 101 0.0 0.0 0.00 0.00 0.00 47 1013.9
20260904053103 77 101 0.0 0.0 0.00 0.00 0.00 49 1014.0
20260904051556 77 101 0.0 0.0 0.00 0.00 0.00 57 1014.2
20260904050115 77 101 0.0 0.0 0.00 0.00 0.00 59 1014.3
20260904044558 78 101 0.0 0.0 0.00 0.00 0.00 59 1014.2
20260904043050 78 101 0.0 0.0 0.00 0.00 0.00 63 1014.0
20260904041549 78 101 0.0 0.0 0.00 0.00 0.00 66 1014.0
20260904040045 79 101 0.0 0.0 0.00 0.00 0.00 66 1014.0
20260904034547 79 101 0.0 0.0 0.00 0.00 0.00 67 1013.8
20260904033037 79 101 0.0 0.0 0.00 0.00 0.00 68 1013.8
20260904031536 80 101 0.0 0.0 0.00 0.00 0.00 68 1013.9
20260904030029 80 101 0.0 0.0 0.00 0.00 0.00 69 1013.9
20260904024523 81 101 0.0 0.0 0.00 0.00 0.00 69 1014.0
20260904023019 81 101 0.0 0.0 0.00 0.00 0.00 69 1014.0
20260904021516 81 101 0.0 0.0 0.00 0.00 0.00 69 1014.0
20260904020009 82 101 0.0 0.0 0.00 0.00 0.00 69 1013.8
20260904014505 82 101 0.0 0.0 0.00 0.00 0.00 69 1013.7
20260904013000 83 101 0.0 0.0 0.00 0.00 0.00 68 1013.5
20260904011607 84 101 0.0 0.0 0.00 0.00 0.00 67 1013.5
20260904010052 84 101 0.0 0.0 0.00 0.00 0.00 66 1013.2
20260904004548 85 101 0.0 0.0 0.00 0.00 0.00 65 1013.1
20260904003044 86 101 0.0 0.0 0.00 0.00 0.00 64 1012.8
20260904001539 87 101 0.0 0.0 0.00 0.00 0.00 62 1012.6
20260904000035 88 101 0.0 0.0 0.00 0.00 0.00 60 1012.5
20260903234530 89 101 0.0 0.0 0.00 0.00 0.00 59 1012.3
20260903233026 90 101 0.0 0.0 0.00 0.00 0.00 58 1012.3
20260903231522 90 101 0.0 0.0 0.00 0.00 0.00 56 1012.1
20260903230017 91 101 0.0 0.0 0.00 0.00 0.00 56 1012.0
20260903224514 91 69 0.0 0.0 0.00 0.00 0.00 55 1012.0
20260903223013 92 89 0.0 0.0 0.00 0.00 0.00 54 1012.0
20260903221504 92 91 0.0 0.0 0.00 0.00 0.00 53 1012.0
20260903220108 92 92 0.0 0.0 0.00 0.00 0.00 52 1012.1
20260903214555 93 94 0.0 0.0 0.00 0.00 0.00 51 1012.1
20260903213051 95 360 0.0 0.0 0.00 0.00 0.00 47 1012.2
20260903211546 96 342 0.0 0.0 0.00 0.00 0.00 47 1012.2
20260903210042 95 36 0.0 0.0 0.00 0.00 0.00 47 1012.2
20260903204537 95 71 0.0 0.0 0.00 0.00 0.00 45 1012.4
20260903203035 95 164 0.0 0.0 0.00 0.00 0.00 46 1012.5
20260903201529 94 140 0.0 0.0 0.00 0.00 0.00 48 1012.7
20260903200038 93 59 0.0 0.0 0.00 0.00 0.00 45 1012.9
20260903194533 94 127 0.0 0.0 0.00 0.00 0.00 44 1012.9
20260903193015 93 113 0.0 0.0 0.00 0.00 0.00 45 1013.1
20260903191518 93 302 0.0 0.0 0.00 0.00 0.00 48 1013.3
20260903190009 95 302 0.0 0.0 0.00 0.00 0.00 43 1013.3
20260903184503 96 219 0.0 0.0 0.00 0.00 0.00 43 1013.5
20260903183119 96 317 0.0 0.0 0.00 0.00 0.00 41 1013.7
20260903181616 95 88 0.0 2.6 0.00 0.00 0.00 43 1013.9
20260903180050 97 313 0.0 0.0 0.00 0.00 0.00 40 1014.0
20260903174546 94 293 0.0 0.0 0.00 0.00 0.00 49 1014.2
20260903173042 96 350 0.0 0.0 0.00 0.00 0.00 47 1014.3
20260903171537 94 138 0.0 0.0 0.00 0.00 0.00 49 1014.5
20260903170036 96 123 0.0 0.0 0.00 0.00 0.00 47 1014.6
20260903164529 92 304 0.0 0.0 0.00 0.00 0.00 52 1014.9
20260903163024 93 298 0.0 0.0 0.00 0.00 0.00 48 1015.0
20260903161529 94 302 0.0 0.0 0.00 0.00 0.00 48 1015.1
20260903160020 93 290 0.0 0.0 0.00 0.00 0.00 50 1015.2
20260903154511 93 283 0.0 0.0 0.00 0.00 0.00 54 1015.4
20260903153008 93 61 0.0 0.0 0.00 0.00 0.00 53 1015.5
20260903151502 93 348 0.0 0.0 0.00 0.00 0.00 53 1015.5
20260903150059 91 306 0.0 0.0 0.00 0.00 0.00 54 1015.6
20260903144558 91 310 0.0 0.0 0.00 0.00 0.00 57 1015.6
20260903143050 90 303 0.0 0.0 0.00 0.00 0.00 61 1015.5
20260903141546 89 300 0.0 0.0 0.00 0.00 0.00 60 1015.4
20260903140041 88 300 0.0 0.0 0.00 0.00 0.00 64 1015.5
20260903134543 85 299 0.0 0.0 0.00 0.00 0.00 67 1015.4
20260903133039 84 299 0.0 0.0 0.00 0.00 0.00 67 1015.5
20260903131529 83 299 0.0 0.0 0.00 0.00 0.00 66 1015.7
20260903130024 81 181 0.0 0.0 0.00 0.00 0.00 59 1015.8
20260903124539 79 180 0.0 0.0 0.00 0.00 0.00 43 1016.0
20260903123015 76 179 0.0 0.0 0.00 0.00 0.00 1 1016.0
20260903121527 72 179 0.0 0.0 0.00 0.00 0.00 1 1015.8
20260903120008 71 179 0.0 0.0 0.00 0.00 0.00 1 1015.8
20260903114503 71 179 0.0 0.0 0.00 0.00 0.00 1 1015.7
20260903113059 71 179 0.0 0.0 0.00 0.00 0.00 1 1015.5
20260903111555 70 179 0.0 0.0 0.00 0.00 0.00 1 1015.2
20260903110050 71 179 0.0 0.0 0.00 0.00 0.00 1 1015.0
20260903104546 71 179 0.0 0.0 0.00 0.00 0.00 1 1014.9
20260903103043 71 179 0.0 0.0 0.00 0.00 0.00 1 1015.0
20260903101538 71 179 0.0 0.0 0.00 0.00 0.00 1 1015.0
20260903100034 71 179 0.0 0.0 0.00 0.00 0.00 1 1014.9
20260903094529 72 179 0.0 0.0 0.00 0.00 0.00 1 1015.0
20260903093024 72 179 0.0 0.0 0.00 0.00 0.00 1 1014.9
20260903091519 72 179 0.0 0.0 0.00 0.00 0.00 1 1014.8
20260903090016 72 179 0.0 0.0 0.00 0.00 0.00 1 1014.7
20260903084514 72 179 0.0 0.0 0.00 0.00 0.00 1 1014.8
20260903083009 73 179 0.0 0.0 0.00 0.00 0.00 1 1014.7
20260903081504 73 179 0.0 0.0 0.00 0.00 0.00 1 1014.7
20260903080106 73 179 0.0 0.0 0.00 0.00 0.00 1 1014.5
20260903074557 73 179 0.0 0.0 0.00 0.00 0.00 1 1014.4
20260903073109 73 179 0.0 0.0 0.00 0.00 0.00 4 1014.2
20260903071548 74 179 0.0 0.0 0.00 0.00 0.00 11 1014.0
20260903070046 74 179 0.0 0.0 0.00 0.00 0.00 17 1014.1
20260903064550 74 179 0.0 0.0 0.00 0.00 0.00 23 1014.0